Weather History for Puerto Plata, Dominican Republic

Change the Weather History Date:

Thursday, May 9, 2013

  Actual Average Record
Temperature  
Mean Temperature 76 °F -  
Max Temperature 83 °F 85 °F 89 °F (1997)
Min Temperature 70 °F 73 °F 68 °F (2014)
Cooling Degree Days 12    
Growing Degree Days 26 (Base 50)    
Moisture  
Dew Point 73 °F    
Average Humidity 84    
Maximum Humidity 96    
Minimum Humidity 66    
Precipitation  
Precipitation 0.00 in - - ()
Sea Level Pressure  
Sea Level Pressure 30.05 in    
Wind  
Wind Speed 4 mph ()    
Max Wind Speed 16 mph    
Max Gust Speed -    
Visibility 7.0 miles    
Events Rain    
Averages and records for this station are not official NWS values.
T = Trace of Precipitation, MM = Missing Value Source: Averaged Metar Reports

Daily Weather History Graph

Daily Weather History Graph

Search for Another Location

Airport:

Trip Planner

Search our weather history database for the weather conditions in past years. The results will help you decide how hot, cold, wet, or windy it might be!

Date:

Astronomy

May. 09, 2013 Rise Set
Actual Time 6:08 AM AST 7:08 PM AST
Civil Twilight 5:45 AM AST 7:31 PM AST
Nautical Twilight 5:18 AM AST 7:59 PM AST
Astronomical Twilight 4:49 AM AST 8:27 PM AST
Moon 5:47 AM AST (5/9) 7:01 PM AST (5/9)
Length of Visible Light 13h 46m
Length of Day
12h 59m
Waning Crescent, 0% of the Moon is Illuminated
May 9
Waning Crescent
May 9
New
May 18
First Quarter
May 25
Full
May 31
Last Quarter

Hourly Weather History & Observations

Time (AST) Temp. Heat Index Dew Point Humidity Pressure Visibility Wind Dir Wind Speed Gust Speed Precip Events Conditions
2:00 AM 73 °F - 72 °F 96% 30.08 in 10 mi Calm Calm - -   Overcast
2:00 AM 73.4 °F - 71.6 °F 94% 30.06 in 6.2 mi Calm Calm - N/A   Overcast
5:00 AM 72 °F - 69 °F 85% 30.01 in 10 mi South 4.5 mph - -   Overcast
5:00 AM 71.6 °F - 68.0 °F 88% 30.01 in 6.2 mi South 4.6 mph - N/A   Scattered Clouds
8:00 AM 75 °F - 73 °F 91% 30.04 in 10 mi Calm Calm - -   Partly Cloudy
8:00 AM 75.2 °F - 73.4 °F 94% 30.04 in 6.2 mi Calm Calm - N/A   Mostly Cloudy
9:00 AM 78.8 °F - 73.4 °F 83% 30.04 in 6.2 mi Calm Calm - N/A   Mostly Cloudy
10:00 AM 80.6 °F 84.6 °F 71.6 °F 74% 30.06 in 6.2 mi East 9.2 mph - N/A   Mostly Cloudy
11:00 AM 82 °F - 72 °F 66% 30.06 in 10 mi East 11.2 mph - -   Partly Cloudy
11:00 AM 82.4 °F 88.2 °F 73.4 °F 74% 30.06 in 6.2 mi East 11.5 mph - N/A   Mostly Cloudy
12:00 PM 82.4 °F 89.5 °F 75.2 °F 79% 30.06 in 6.2 mi East 16.1 mph - N/A   Mostly Cloudy
1:00 PM 82.4 °F 88.2 °F 73.4 °F 74% 30.06 in 6.2 mi East 8.1 mph - N/A   Mostly Cloudy
2:00 PM 82 °F - 75 °F 73% 30.07 in 10 mi ESE 13.4 mph - -   Mostly Cloudy
2:00 PM 82.4 °F 89.5 °F 75.2 °F 79% 30.06 in 6.2 mi ESE 12.7 mph - N/A   Mostly Cloudy
3:00 PM 82.4 °F 89.5 °F 75.2 °F 79% 30.04 in 6.2 mi ESE 13.8 mph - N/A   Mostly Cloudy
4:00 PM 80.6 °F 86.2 °F 75.2 °F 84% 30.04 in 6.2 mi East 6.9 mph - N/A   Mostly Cloudy
5:00 PM 80.6 °F 86.2 °F 75.2 °F 84% 30.04 in 6.2 mi ESE 6.9 mph - N/A   Mostly Cloudy
6:00 PM 80.6 °F 86.2 °F 75.2 °F 84% 30.04 in 5.0 mi ESE 11.5 mph - N/A Rain Light Rain
7:00 PM 78.8 °F - 75.2 °F 89% 30.06 in 6.2 mi Calm Calm - N/A   Overcast
8:00 PM 77.0 °F - 75.2 °F 94% 30.09 in 6.2 mi Calm Calm - N/A   Overcast
11:00 PM 75.2 °F - 73.4 °F 94% 30.06 in 6.2 mi Calm Calm - N/A   Mostly Cloudy